PRIVATE WETTERSTATION BILLIGHEIM-ALLFELD                       ZURCK
Wetterdaten: Mittwoch, 30.07.2014
Datum Zeit Temp. A. Temp. A. min Temp. A. max Feuchte A. Luftdruck Regen Wind Richtung Richtung Sonnenschein ET Solar Taupunkt Windchill Windben Empfang
30.07.2014 00:00 18,1 C 18,1 C 18,1 C 87 % 1007,0 hPa 0,0 l/m 0,0 km/h (0 Bft) W-NW 292 0 min 0,000 mm 0 W/m 15,9 C 18,1 C 4,8 km/h (1 Bft) 100 %
30.07.2014 00:10 18,0 C 18,0 C 18,1 C 87 % 1007,0 hPa 0,0 l/m 0,0 km/h (0 Bft) N 0 0 min 0,000 mm 0 W/m 15,8 C 18,0 C 0,0 km/h (0 Bft) 100 %
30.07.2014 00:20 18,0 C 17,9 C 18,0 C 87 % 1007,1 hPa 0,0 l/m 0,0 km/h (0 Bft) W-NW 292 0 min 0,000 mm 0 W/m 15,8 C 18,0 C 1,6 km/h (1 Bft) 100 %
30.07.2014 00:30 17,9 C 17,9 C 18,0 C 87 % 1007,0 hPa 0,2 l/m 0,0 km/h (0 Bft) N 0 0 min 0,000 mm 0 W/m 15,7 C 17,9 C 0,0 km/h (0 Bft) 99 %
30.07.2014 00:40 17,9 C 17,9 C 17,9 C 87 % 1006,9 hPa 0,0 l/m 0,0 km/h (0 Bft) W-NW 292 0 min 0,000 mm 0 W/m 15,7 C 17,9 C 1,6 km/h (1 Bft) 99 %
30.07.2014 00:50 17,9 C 17,9 C 17,9 C 87 % 1006,8 hPa 0,0 l/m 0,0 km/h (0 Bft) N 0 0 min 0,000 mm 0 W/m 15,7 C 17,9 C 0,0 km/h (0 Bft) 87 %
30.07.2014 01:00 17,8 C 17,8 C 17,9 C 87 % 1006,7 hPa 0,0 l/m 0,0 km/h (0 Bft) W-NW 292 0 min 0,000 mm 0 W/m 15,6 C 17,8 C 1,6 km/h (1 Bft) 100 %
30.07.2014 01:10 17,7 C 17,7 C 17,8 C 87 % 1006,8 hPa 0,2 l/m 0,0 km/h (0 Bft) W-NW 292 0 min 0,000 mm 0 W/m 15,5 C 17,7 C 3,2 km/h (1 Bft) 100 %
30.07.2014 01:20 17,7 C 17,7 C 17,7 C 87 % 1006,6 hPa 0,0 l/m 0,0 km/h (0 Bft) W-NW 292 0 min 0,000 mm 0 W/m 15,5 C 17,7 C 1,6 km/h (1 Bft) 100 %
30.07.2014 01:30 17,7 C 17,7 C 17,7 C 87 % 1006,6 hPa 0,0 l/m 0,0 km/h (0 Bft) W-NW 292 0 min 0,000 mm 0 W/m 15,5 C 17,7 C 4,8 km/h (1 Bft) 100 %
30.07.2014 01:40 17,6 C 17,6 C 17,7 C 87 % 1006,6 hPa 0,0 l/m 0,0 km/h (0 Bft) W-NW 292 0 min 0,000 mm 0 W/m 15,4 C 17,6 C 1,6 km/h (1 Bft) 100 %
30.07.2014 01:50 17,6 C 17,6 C 17,6 C 87 % 1006,6 hPa 0,0 l/m 0,0 km/h (0 Bft) N 0 0 min 0,000 mm 0 W/m 15,4 C 17,6 C 0,0 km/h (0 Bft) 100 %
30.07.2014 02:00 17,6 C 17,6 C 17,6 C 87 % 1006,6 hPa 0,0 l/m 0,0 km/h (0 Bft) W-NW 292 0 min 0,000 mm 0 W/m 15,4 C 17,6 C 3,2 km/h (1 Bft) 100 %
30.07.2014 02:10 17,5 C 17,5 C 17,6 C 87 % 1006,6 hPa 0,0 l/m 0,0 km/h (0 Bft) W-NW 292 0 min 0,000 mm 0 W/m 15,3 C 17,5 C 1,6 km/h (1 Bft) 100 %
30.07.2014 02:20 17,5 C 17,5 C 17,5 C 87 % 1006,5 hPa 0,0 l/m 0,0 km/h (0 Bft) W-NW 292 0 min 0,000 mm 0 W/m 15,3 C 17,5 C 3,2 km/h (1 Bft) 100 %
30.07.2014 02:30 17,4 C 17,4 C 17,5 C 87 % 1006,6 hPa 0,0 l/m 0,0 km/h (0 Bft) N 0 0 min 0,000 mm 0 W/m 15,2 C 17,4 C 0,0 km/h (0 Bft) 100 %
30.07.2014 02:40 17,4 C 17,4 C 17,5 C 87 % 1006,6 hPa 0,0 l/m 0,0 km/h (0 Bft) W-NW 292 0 min 0,000 mm 0 W/m 15,2 C 17,4 C 1,6 km/h (1 Bft) 100 %
30.07.2014 02:50 17,4 C 17,4 C 17,4 C 87 % 1006,6 hPa 0,2 l/m 0,0 km/h (0 Bft) W-NW 292 0 min 0,000 mm 0 W/m 15,2 C 17,4 C 1,6 km/h (1 Bft) 98 %
30.07.2014 03:00 17,4 C 17,4 C 17,4 C 87 % 1006,6 hPa 0,2 l/m 0,0 km/h (0 Bft) W-NW 292 0 min 0,000 mm 0 W/m 15,2 C 17,4 C 1,6 km/h (1 Bft) 99 %
30.07.2014 03:10 17,4 C 17,4 C 17,4 C 87 % 1006,5 hPa 1,2 l/m 0,0 km/h (0 Bft) W-NW 292 0 min 0,000 mm 0 W/m 15,2 C 17,4 C 4,8 km/h (1 Bft) 99 %
30.07.2014 03:20 17,4 C 17,4 C 17,4 C 87 % 1006,6 hPa 0,8 l/m 0,0 km/h (0 Bft) W-NW 292 0 min 0,000 mm 0 W/m 15,2 C 17,4 C 1,6 km/h (1 Bft) 99 %
30.07.2014 03:30 17,4 C 17,4 C 17,4 C 87 % 1006,6 hPa 0,6 l/m 0,0 km/h (0 Bft) W-NW 292 0 min 0,000 mm 0 W/m 15,2 C 17,4 C 1,6 km/h (1 Bft) 100 %
30.07.2014 03:40 17,5 C 17,4 C 17,5 C 87 % 1006,6 hPa 0,2 l/m 0,0 km/h (0 Bft) W-NW 292 0 min 0,000 mm 0 W/m 15,3 C 17,5 C 1,6 km/h (1 Bft) 99 %
30.07.2014 03:50 17,5 C 17,4 C 17,5 C 87 % 1006,5 hPa 0,0 l/m 0,0 km/h (0 Bft) W-NW 292 0 min 0,000 mm 0 W/m 15,3 C 17,5 C 1,6 km/h (1 Bft) 100 %
30.07.2014 04:00 17,4 C 17,4 C 17,5 C 87 % 1006,5 hPa 0,2 l/m 0,0 km/h (0 Bft) W-NW 292 0 min 0,000 mm 0 W/m 15,2 C 17,4 C 1,6 km/h (1 Bft) 100 %
30.07.2014 04:10 17,4 C 17,4 C 17,5 C 87 % 1006,3 hPa 0,0 l/m 0,0 km/h (0 Bft) W-NW 292 0 min 0,000 mm 0 W/m 15,2 C 17,4 C 1,6 km/h (1 Bft) 98 %
30.07.2014 04:20 17,4 C 17,4 C 17,4 C 87 % 1006,3 hPa 0,0 l/m 0,0 km/h (0 Bft) SW 225 0 min 0,000 mm 0 W/m 15,2 C 17,4 C 1,6 km/h (1 Bft) 99 %
30.07.2014 04:30 17,4 C 17,4 C 17,4 C 87 % 1006,3 hPa 0,0 l/m 0,0 km/h (0 Bft) SW 225 0 min 0,000 mm 0 W/m 15,2 C 17,4 C 1,6 km/h (1 Bft) 99 %
30.07.2014 04:40 17,4 C 17,4 C 17,4 C 87 % 1006,3 hPa 0,0 l/m 0,0 km/h (0 Bft) SW 225 0 min 0,000 mm 0 W/m 15,2 C 17,4 C 1,6 km/h (1 Bft) 99 %
30.07.2014 04:50 17,4 C 17,4 C 17,4 C 87 % 1006,4 hPa 0,0 l/m 0,0 km/h (0 Bft) SW 225 0 min 0,000 mm 0 W/m 15,2 C 17,4 C 1,6 km/h (1 Bft) 99 %
30.07.2014 05:00 17,4 C 17,4 C 17,4 C 87 % 1006,4 hPa 0,0 l/m 0,0 km/h (0 Bft) W-NW 292 0 min 0,000 mm 0 W/m 15,2 C 17,4 C 4,8 km/h (1 Bft) 99 %
30.07.2014 05:10 17,4 C 17,4 C 17,4 C 87 % 1006,5 hPa 0,0 l/m 0,0 km/h (0 Bft) W-NW 292 0 min 0,000 mm 0 W/m 15,2 C 17,4 C 1,6 km/h (1 Bft) 98 %
30.07.2014 05:20 17,5 C 17,4 C 17,5 C 87 % 1006,6 hPa 0,2 l/m 0,0 km/h (0 Bft) N 0 0 min 0,000 mm 0 W/m 15,3 C 17,5 C 0,0 km/h (0 Bft) 98 %
30.07.2014 05:30 17,5 C 17,5 C 17,5 C 87 % 1006,6 hPa 0,0 l/m 0,0 km/h (0 Bft) N 0 0 min 0,000 mm 0 W/m 15,3 C 17,5 C 0,0 km/h (0 Bft) 98 %
30.07.2014 05:40 17,4 C 17,4 C 17,5 C 87 % 1006,5 hPa 0,0 l/m 0,0 km/h (0 Bft) W-NW 292 0 min 0,000 mm 0 W/m 15,2 C 17,4 C 1,6 km/h (1 Bft) 98 %
30.07.2014 05:50 17,5 C 17,4 C 17,5 C 87 % 1006,5 hPa 0,0 l/m 0,0 km/h (0 Bft) W-SW 247 0 min 0,000 mm 0 W/m 15,3 C 17,5 C 1,6 km/h (1 Bft) 100 %
30.07.2014 06:00 17,4 C 17,4 C 17,5 C 87 % 1006,6 hPa 0,0 l/m 0,0 km/h (0 Bft) W-SW 247 0 min 0,000 mm 0 W/m 15,2 C 17,4 C 1,6 km/h (1 Bft) 98 %
30.07.2014 06:10 17,4 C 17,4 C 17,4 C 87 % 1006,5 hPa 0,0 l/m 0,0 km/h (0 Bft) N 0 0 min 0,000 mm 0 W/m 15,2 C 17,4 C 0,0 km/h (0 Bft) 98 %
30.07.2014 06:20 17,4 C 17,4 C 17,4 C 87 % 1006,5 hPa 0,0 l/m 0,0 km/h (0 Bft) W-SW 247 0 min 0,000 mm 0 W/m 15,2 C 17,4 C 1,6 km/h (1 Bft) 98 %
30.07.2014 06:30 17,4 C 17,4 C 17,4 C 87 % 1006,5 hPa 0,0 l/m 0,0 km/h (0 Bft) W-SW 247 0 min 0,000 mm 5 W/m 15,2 C 17,4 C 1,6 km/h (1 Bft) 99 %
30.07.2014 06:40 17,5 C 17,4 C 17,5 C 87 % 1006,5 hPa 0,0 l/m 0,0 km/h (0 Bft) W-SW 247 0 min 0,000 mm 9 W/m 15,3 C 17,5 C 1,6 km/h (1 Bft) 100 %
30.07.2014 06:50 17,6 C 17,5 C 17,6 C 87 % 1006,5 hPa 0,0 l/m 0,0 km/h (0 Bft) W-SW 247 0 min 0,000 mm 12 W/m 15,4 C 17,6 C 1,6 km/h (1 Bft) 97 %
30.07.2014 07:00 17,6 C 17,5 C 17,6 C 87 % 1006,4 hPa 0,2 l/m 0,0 km/h (0 Bft) W-SW 247 0 min 0,000 mm 19 W/m 15,4 C 17,6 C 1,6 km/h (1 Bft) 98 %
30.07.2014 07:10 17,6 C 17,5 C 17,6 C 87 % 1006,5 hPa 0,0 l/m 0,0 km/h (0 Bft) W 270 0 min 0,000 mm 21 W/m 15,4 C 17,6 C 1,6 km/h (1 Bft) 97 %
30.07.2014 07:20 17,7 C 17,6 C 17,7 C 87 % 1006,5 hPa 0,0 l/m 0,0 km/h (0 Bft) W 270 0 min 0,000 mm 18 W/m 15,5 C 17,7 C 1,6 km/h (1 Bft) 98 %
30.07.2014 07:30 17,7 C 17,7 C 17,7 C 87 % 1006,6 hPa 0,0 l/m 0,0 km/h (0 Bft) W-NW 292 0 min 0,000 mm 14 W/m 15,5 C 17,7 C 6,4 km/h (2 Bft) 98 %
30.07.2014 07:40 17,7 C 17,7 C 17,7 C 87 % 1006,6 hPa 0,0 l/m 0,0 km/h (0 Bft) W-NW 292 0 min 0,000 mm 23 W/m 15,5 C 17,7 C 4,8 km/h (1 Bft) 99 %
30.07.2014 07:50 17,8 C 17,7 C 17,8 C 87 % 1006,6 hPa 0,0 l/m 0,0 km/h (0 Bft) W-NW 292 0 min 0,000 mm 32 W/m 15,6 C 17,8 C 1,6 km/h (1 Bft) 98 %
30.07.2014 08:00 17,8 C 17,8 C 17,8 C 87 % 1006,7 hPa 0,0 l/m 1,6 km/h (1 Bft) W-NW 292 0 min 0,025 mm 33 W/m 15,6 C 17,8 C 8,0 km/h (2 Bft) 98 %
30.07.2014 08:10 17,9 C 17,8 C 17,9 C 87 % 1006,9 hPa 0,0 l/m 1,6 km/h (1 Bft) W-NW 292 0 min 0,000 mm 39 W/m 15,7 C 17,9 C 8,0 km/h (2 Bft) 98 %
30.07.2014 08:20 17,9 C 17,9 C 17,9 C 87 % 1007,0 hPa 0,0 l/m 0,0 km/h (0 Bft) W-SW 247 0 min 0,000 mm 40 W/m 15,7 C 17,9 C 4,8 km/h (1 Bft) 97 %
30.07.2014 08:30 17,9 C 17,9 C 17,9 C 87 % 1007,1 hPa 0,0 l/m 1,6 km/h (1 Bft) NW 315 0 min 0,000 mm 37 W/m 15,7 C 17,9 C 8,0 km/h (2 Bft) 89 %
30.07.2014 08:40 18,0 C 17,9 C 18,0 C 87 % 1007,1 hPa 0,0 l/m 0,0 km/h (0 Bft) NW 315 0 min 0,000 mm 70 W/m 15,8 C 18,0 C 6,4 km/h (2 Bft) 97 %
30.07.2014 08:50 18,2 C 18,0 C 18,2 C 87 % 1007,3 hPa 0,0 l/m 0,0 km/h (0 Bft) NW 315 0 min 0,000 mm 83 W/m 16,0 C 18,2 C 1,6 km/h (1 Bft) 98 %
30.07.2014 09:00 18,3 C 18,2 C 18,3 C 87 % 1007,2 hPa 0,0 l/m 0,0 km/h (0 Bft) NW 315 0 min 0,025 mm 86 W/m 16,1 C 18,3 C 6,4 km/h (2 Bft) 98 %
30.07.2014 09:10 18,4 C 18,3 C 18,4 C 87 % 1007,3 hPa 0,0 l/m 0,0 km/h (0 Bft) NW 315 0 min 0,000 mm 88 W/m 16,2 C 18,4 C 6,4 km/h (2 Bft) 97 %
30.07.2014 09:20 18,5 C 18,4 C 18,5 C 87 % 1007,3 hPa 0,0 l/m 0,0 km/h (0 Bft) NW 315 0 min 0,000 mm 76 W/m 16,3 C 18,5 C 1,6 km/h (1 Bft) 98 %
30.07.2014 09:30 18,6 C 18,5 C 18,6 C 87 % 1007,5 hPa 0,0 l/m 0,0 km/h (0 Bft) NW 315 0 min 0,000 mm 86 W/m 16,4 C 18,6 C 1,6 km/h (1 Bft) 97 %
30.07.2014 09:40 18,6 C 18,6 C 18,6 C 87 % 1007,6 hPa 0,0 l/m 0,0 km/h (0 Bft) NW 315 0 min 0,000 mm 49 W/m 16,4 C 18,6 C 1,6 km/h (1 Bft) 98 %
30.07.2014 09:50 18,6 C 18,6 C 18,6 C 87 % 1007,7 hPa 0,0 l/m 0,0 km/h (0 Bft) N 0 0 min 0,000 mm 49 W/m 16,4 C 18,6 C 0,0 km/h (0 Bft) 97 %
30.07.2014 10:00 18,6 C 18,6 C 18,7 C 87 % 1007,6 hPa 0,0 l/m 0,0 km/h (0 Bft) NW 315 0 min 0,025 mm 70 W/m 16,4 C 18,6 C 1,6 km/h (1 Bft) 98 %
30.07.2014 10:10 18,7 C 18,7 C 18,7 C 87 % 1007,6 hPa 0,0 l/m 1,6 km/h (1 Bft) NW 315 0 min 0,000 mm 76 W/m 16,5 C 18,7 C 6,4 km/h (2 Bft) 98 %
30.07.2014 10:20 19,1 C 18,7 C 19,1 C 87 % 1007,5 hPa 0,0 l/m 0,0 km/h (0 Bft) NW 315 10 min 0,000 mm 555 W/m 16,9 C 19,1 C 8,0 km/h (2 Bft) 97 %
30.07.2014 10:30 19,8 C 19,1 C 19,8 C 87 % 1007,6 hPa 0,0 l/m 1,6 km/h (1 Bft) NW 315 10 min 0,000 mm 548 W/m 17,6 C 19,8 C 11,3 km/h (2 Bft) 98 %
30.07.2014 10:40 19,6 C 19,6 C 19,8 C 87 % 1007,7 hPa 0,0 l/m 1,6 km/h (1 Bft) NW 315 10 min 0,000 mm 172 W/m 17,4 C 19,6 C 11,3 km/h (2 Bft) 97 %
30.07.2014 10:50 19,5 C 19,5 C 19,6 C 87 % 1007,6 hPa 0,0 l/m 3,2 km/h (1 Bft) NW 315 10 min 0,000 mm 260 W/m 17,3 C 19,5 C 17,7 km/h (3 Bft) 98 %
30.07.2014 11:00 19,5 C 19,5 C 19,5 C 87 % 1007,6 hPa 0,0 l/m 0,0 km/h (0 Bft) NW 315 10 min 0,127 mm 207 W/m 17,3 C 19,5 C 8,0 km/h (2 Bft) 98 %
30.07.2014 11:10 19,7 C 19,5 C 19,7 C 87 % 1007,6 hPa 0,0 l/m 1,6 km/h (1 Bft) W-NW 292 10 min 0,000 mm 169 W/m 17,5 C 19,7 C 9,7 km/h (2 Bft) 98 %
30.07.2014 11:20 19,8 C 19,7 C 19,8 C 88 % 1007,8 hPa 0,0 l/m 3,2 km/h (1 Bft) NW 315 10 min 0,000 mm 171 W/m 17,8 C 19,8 C 9,7 km/h (2 Bft) 97 %
30.07.2014 11:30 20,1 C 19,8 C 20,1 C 87 % 1007,8 hPa 0,0 l/m 1,6 km/h (1 Bft) NW 315 10 min 0,000 mm 429 W/m 17,9 C 20,1 C 8,0 km/h (2 Bft) 97 %
30.07.2014 11:40 20,3 C 20,1 C 20,3 C 87 % 1007,7 hPa 0,0 l/m 6,4 km/h (2 Bft) NW 315 10 min 0,000 mm 352 W/m 18,1 C 20,3 C 20,9 km/h (4 Bft) 97 %
30.07.2014 11:50 20,2 C 20,2 C 20,3 C 87 % 1007,9 hPa 0,0 l/m 6,4 km/h (2 Bft) NW 315 10 min 0,000 mm 265 W/m 18,0 C 20,2 C 17,7 km/h (3 Bft) 97 %
30.07.2014 12:00 20,2 C 20,2 C 20,3 C 87 % 1008,0 hPa 0,0 l/m 8,0 km/h (2 Bft) NW 315 10 min 0,152 mm 374 W/m 18,0 C 19,6 C 17,7 km/h (3 Bft) 98 %
30.07.2014 12:10 20,4 C 20,2 C 20,4 C 87 % 1008,1 hPa 0,0 l/m 9,7 km/h (2 Bft) NW 315 10 min 0,000 mm 399 W/m 18,2 C 19,2 C 22,5 km/h (4 Bft) 97 %
30.07.2014 12:20 20,3 C 20,3 C 20,4 C 87 % 1008,2 hPa 0,0 l/m 8,0 km/h (2 Bft) NW 315 10 min 0,000 mm 206 W/m 18,1 C 19,7 C 16,1 km/h (3 Bft) 97 %
30.07.2014 12:30 20,3 C 20,3 C 20,3 C 87 % 1008,2 hPa 0,0 l/m 4,8 km/h (1 Bft) NW 315 10 min 0,000 mm 265 W/m 18,1 C 20,3 C 16,1 km/h (3 Bft) 97 %
30.07.2014 12:40 20,4 C 20,3 C 20,4 C 87 % 1008,1 hPa 0,0 l/m 4,8 km/h (1 Bft) NW 315 10 min 0,000 mm 250 W/m 18,2 C 20,4 C 17,7 km/h (3 Bft) 97 %
30.07.2014 12:50 20,5 C 20,4 C 20,5 C 87 % 1008,3 hPa 0,0 l/m 6,4 km/h (2 Bft) NW 315 10 min 0,000 mm 290 W/m 18,3 C 20,5 C 19,3 km/h (3 Bft) 98 %
30.07.2014 13:00 20,7 C 20,5 C 20,7 C 87 % 1008,3 hPa 0,0 l/m 1,6 km/h (1 Bft) NW 315 10 min 0,152 mm 336 W/m 18,5 C 20,7 C 14,5 km/h (3 Bft) 97 %
30.07.2014 13:10 21,0 C 20,7 C 21,0 C 87 % 1008,3 hPa 0,0 l/m 6,4 km/h (2 Bft) NW 315 10 min 0,000 mm 316 W/m 18,7 C 21,0 C 16,1 km/h (3 Bft) 98 %
30.07.2014 13:20 21,0 C 21,0 C 21,1 C 85 % 1008,2 hPa 0,0 l/m 1,6 km/h (1 Bft) NW 315 10 min 0,000 mm 292 W/m 18,4 C 21,0 C 14,5 km/h (3 Bft) 98 %
30.07.2014 13:30 20,9 C 20,9 C 21,0 C 86 % 1008,1 hPa 0,0 l/m 0,0 km/h (0 Bft) N-NW 337 10 min 0,000 mm 338 W/m 18,5 C 20,9 C 6,4 km/h (2 Bft) 97 %
30.07.2014 13:40 21,4 C 20,9 C 21,4 C 85 % 1008,0 hPa 0,0 l/m 3,2 km/h (1 Bft) NW 315 10 min 0,000 mm 947 W/m 18,8 C 21,4 C 11,3 km/h (2 Bft) 97 %
30.07.2014 13:50 22,2 C 21,4 C 22,2 C 83 % 1008,1 hPa 0,0 l/m 6,4 km/h (2 Bft) NW 315 10 min 0,000 mm 904 W/m 19,2 C 22,2 C 20,9 km/h (4 Bft) 96 %
30.07.2014 14:00 22,8 C 22,2 C 22,8 C 81 % 1008,2 hPa 0,0 l/m 4,8 km/h (1 Bft) NW 315 10 min 0,279 mm 545 W/m 19,4 C 22,8 C 19,3 km/h (3 Bft) 98 %
30.07.2014 14:10 22,9 C 22,8 C 22,9 C 78 % 1008,2 hPa 0,0 l/m 8,0 km/h (2 Bft) NW 315 10 min 0,000 mm 497 W/m 18,9 C 22,4 C 17,7 km/h (3 Bft) 97 %
30.07.2014 14:20 23,2 C 22,9 C 23,2 C 79 % 1008,1 hPa 0,0 l/m 8,0 km/h (2 Bft) NW 315 10 min 0,000 mm 816 W/m 19,3 C 22,7 C 19,3 km/h (3 Bft) 97 %
30.07.2014 14:30 23,2 C 23,2 C 23,3 C 78 % 1008,3 hPa 0,0 l/m 8,0 km/h (2 Bft) NW 315 10 min 0,000 mm 258 W/m 19,1 C 22,7 C 19,3 km/h (3 Bft) 97 %
30.07.2014 14:40 22,8 C 22,8 C 23,2 C 80 % 1008,3 hPa 0,0 l/m 4,8 km/h (1 Bft) NW 315 10 min 0,000 mm 295 W/m 19,2 C 22,8 C 16,1 km/h (3 Bft) 98 %
30.07.2014 14:50 22,4 C 22,4 C 22,8 C 79 % 1008,4 hPa 0,0 l/m 8,0 km/h (2 Bft) NW 315 10 min 0,000 mm 237 W/m 18,6 C 21,9 C 19,3 km/h (3 Bft) 98 %
30.07.2014 15:00 22,1 C 22,1 C 22,4 C 79 % 1008,7 hPa 0,0 l/m 12,9 km/h (3 Bft) NW 315 10 min 0,203 mm 172 W/m 18,3 C 20,2 C 27,4 km/h (4 Bft) 97 %
30.07.2014 15:10 21,5 C 21,5 C 22,1 C 80 % 1008,8 hPa 0,0 l/m 12,9 km/h (3 Bft) NW 315 10 min 0,000 mm 206 W/m 17,9 C 19,5 C 30,6 km/h (5 Bft) 98 %
30.07.2014 15:20 21,2 C 21,2 C 21,5 C 82 % 1008,9 hPa 0,0 l/m 11,3 km/h (2 Bft) NW 315 10 min 0,000 mm 178 W/m 18,0 C 19,6 C 25,7 km/h (4 Bft) 97 %
30.07.2014 15:30 21,1 C 21,1 C 21,2 C 84 % 1008,9 hPa 0,0 l/m 8,0 km/h (2 Bft) NW 315 10 min 0,000 mm 329 W/m 18,3 C 20,5 C 24,1 km/h (4 Bft) 98 %
30.07.2014 15:40 21,4 C 21,1 C 21,4 C 83 % 1008,9 hPa 0,0 l/m 8,0 km/h (2 Bft) NW 315 10 min 0,000 mm 483 W/m 18,4 C 20,8 C 24,1 km/h (4 Bft) 97 %
30.07.2014 15:50 21,6 C 21,4 C 21,6 C 81 % 1008,9 hPa 0,0 l/m 12,9 km/h (3 Bft) NW 315 10 min 0,000 mm 348 W/m 18,2 C 19,7 C 24,1 km/h (4 Bft) 96 %
30.07.2014 16:00 21,6 C 21,6 C 21,6 C 81 % 1009,0 hPa 0,0 l/m 11,3 km/h (2 Bft) NW 315 10 min 0,178 mm 316 W/m 18,2 C 20,1 C 25,7 km/h (4 Bft) 98 %
30.07.2014 16:10 21,6 C 21,6 C 21,6 C 81 % 1008,9 hPa 0,0 l/m 11,0 km/h (2 Bft) NW 313 10 min 0,002 mm 339 W/m 18,2 C 20,1 C 25,7 km/h (4 Bft) 100 %
30.07.2014 16:20 21,7 C 21,6 C 21,7 C 81 % 1009,0 hPa 0,0 l/m 12,6 km/h (3 Bft) NW 316 10 min 0,000 mm 302 W/m 18,3 C 19,8 C 25,7 km/h (4 Bft) 100 %
30.07.2014 16:30 21,6 C 21,6 C 21,7 C 81 % 1009,0 hPa 0,0 l/m 12,5 km/h (3 Bft) NW 306 10 min 0,000 mm 327 W/m 18,2 C 19,7 C 25,7 km/h (4 Bft) 100 %
30.07.2014 16:40 21,6 C 21,6 C 21,6 C 82 % 1009,2 hPa 0,0 l/m 10,0 km/h (2 Bft) NW 313 10 min 0,000 mm 283 W/m 18,4 C 20,4 C 22,5 km/h (4 Bft) 100 %
30.07.2014 16:50 21,5 C 21,5 C 21,6 C 82 % 1009,1 hPa 0,0 l/m 14,7 km/h (3 Bft) NW 313 10 min 0,000 mm 264 W/m 18,3 C 19,1 C 27,4 km/h (4 Bft) 100 %
30.07.2014 17:00 21,3 C 21,3 C 21,5 C 82 % 1009,2 hPa 0,0 l/m 11,0 km/h (2 Bft) N-NW 332 10 min 0,204 mm 236 W/m 18,1 C 19,8 C 22,5 km/h (4 Bft) 100 %
30.07.2014 17:10 21,3 C 21,3 C 21,3 C 82 % 1009,3 hPa 0,0 l/m 5,5 km/h (1 Bft) NW 315 10 min 0,000 mm 221 W/m 18,1 C 21,3 C 16,1 km/h (3 Bft) 100 %
30.07.2014 17:20 21,3 C 21,3 C 21,3 C 84 % 1009,4 hPa 0,0 l/m 7,2 km/h (2 Bft) N-NW 331 0 min 0,000 mm 114 W/m 18,5 C 21,0 C 16,1 km/h (3 Bft) 100 %
30.07.2014 17:30 21,2 C 21,2 C 21,3 C 83 % 1009,3 hPa 0,0 l/m 6,5 km/h (2 Bft) NW 317 0 min 0,000 mm 95 W/m 18,2 C 21,2 C 22,5 km/h (4 Bft) 95 %
30.07.2014 17:40 21,1 C 21,1 C 21,2 C 83 % 1009,3 hPa 0,0 l/m 8,4 km/h (2 Bft) NW 326 0 min 0,000 mm 151 W/m 18,1 C 20,4 C 22,5 km/h (4 Bft) 97 %
30.07.2014 17:50 21,1 C 21,0 C 21,1 C 83 % 1009,3 hPa 0,0 l/m 9,1 km/h (2 Bft) N-NW 342 10 min 0,000 mm 216 W/m 18,1 C 20,1 C 19,3 km/h (3 Bft) 100 %
30.07.2014 18:00 21,2 C 21,1 C 21,2 C 82 % 1009,3 hPa 0,0 l/m 10,2 km/h (2 Bft) N-NW 334 10 min 0,127 mm 327 W/m 18,0 C 19,9 C 25,7 km/h (4 Bft) 100 %
30.07.2014 18:10 21,5 C 21,2 C 21,5 C 81 % 1009,4 hPa 0,0 l/m 12,1 km/h (2 Bft) NW 313 10 min 0,000 mm 262 W/m 18,1 C 19,7 C 27,4 km/h (4 Bft) 100 %
30.07.2014 18:20 21,6 C 21,5 C 21,6 C 80 % 1009,4 hPa 0,0 l/m 10,7 km/h (2 Bft) N-NW 338 10 min 0,000 mm 221 W/m 18,0 C 20,2 C 24,1 km/h (4 Bft) 100 %
30.07.2014 18:30 21,4 C 21,4 C 21,6 C 81 % 1009,6 hPa 0,0 l/m 8,4 km/h (2 Bft) NW 311 10 min 0,000 mm 181 W/m 18,0 C 20,7 C 24,1 km/h (4 Bft) 100 %
30.07.2014 18:40 21,2 C 21,2 C 21,4 C 80 % 1009,6 hPa 0,0 l/m 11,0 km/h (2 Bft) NW 325 0 min 0,000 mm 144 W/m 17,6 C 19,7 C 25,7 km/h (4 Bft) 100 %
30.07.2014 18:50 21,1 C 21,1 C 21,2 C 81 % 1009,6 hPa 0,0 l/m 9,9 km/h (2 Bft) NW 304 10 min 0,000 mm 190 W/m 17,7 C 19,9 C 24,1 km/h (4 Bft) 100 %
30.07.2014 19:00 21,0 C 21,0 C 21,1 C 81 % 1009,7 hPa 0,0 l/m 8,8 km/h (2 Bft) NW 311 10 min 0,152 mm 174 W/m 17,6 C 20,1 C 25,7 km/h (4 Bft) 100 %
30.07.2014 19:10 20,9 C 20,9 C 21,0 C 81 % 1009,7 hPa 0,0 l/m 12,3 km/h (3 Bft) NW 321 0 min 0,000 mm 111 W/m 17,5 C 19,0 C 27,4 km/h (4 Bft) 100 %
30.07.2014 19:20 20,6 C 20,6 C 20,9 C 81 % 1010,0 hPa 0,0 l/m 12,7 km/h (3 Bft) NW 310 0 min 0,000 mm 77 W/m 17,2 C 18,5 C 27,4 km/h (4 Bft) 100 %
30.07.2014 19:30 20,4 C 20,4 C 20,6 C 82 % 1010,1 hPa 0,0 l/m 7,9 km/h (2 Bft) NW 317 0 min 0,000 mm 72 W/m 17,2 C 19,8 C 22,5 km/h (4 Bft) 100 %
30.07.2014 19:40 20,2 C 20,2 C 20,4 C 82 % 1010,5 hPa 0,0 l/m 9,3 km/h (2 Bft) N-NW 328 0 min 0,000 mm 32 W/m 17,0 C 19,1 C 30,6 km/h (5 Bft) 100 %
30.07.2014 19:50 19,9 C 19,9 C 20,2 C 83 % 1010,6 hPa 0,0 l/m 8,3 km/h (2 Bft) W-NW 289 0 min 0,000 mm 44 W/m 16,9 C 19,1 C 27,4 km/h (4 Bft) 100 %
30.07.2014 20:00 19,7 C 19,7 C 19,9 C 82 % 1010,5 hPa 0,0 l/m 10,7 km/h (2 Bft) N-NW 329 0 min 0,076 mm 18 W/m 16,5 C 18,1 C 24,1 km/h (4 Bft) 100 %
30.07.2014 20:10 19,6 C 19,6 C 19,7 C 83 % 1010,7 hPa 0,0 l/m 6,7 km/h (2 Bft) NW 317 0 min 0,000 mm 16 W/m 16,6 C 19,5 C 25,7 km/h (4 Bft) 100 %
30.07.2014 20:20 19,4 C 19,4 C 19,6 C 84 % 1010,9 hPa 0,0 l/m 6,3 km/h (2 Bft) N-NW 346 0 min 0,000 mm 12 W/m 16,6 C 19,4 C 17,7 km/h (3 Bft) 100 %
30.07.2014 20:30 19,2 C 19,2 C 19,4 C 84 % 1011,0 hPa 0,0 l/m 6,9 km/h (2 Bft) W-NW 300 0 min 0,000 mm 9 W/m 16,4 C 19,0 C 19,3 km/h (3 Bft) 100 %
30.07.2014 20:40 19,2 C 19,2 C 19,2 C 84 % 1011,3 hPa 0,0 l/m 6,4 km/h (2 Bft) N 5 0 min 0,000 mm 9 W/m 16,4 C 19,2 C 20,9 km/h (4 Bft) 100 %
30.07.2014 20:50 19,1 C 19,1 C 19,2 C 84 % 1011,5 hPa 0,0 l/m 2,9 km/h (1 Bft) N-NW 348 0 min 0,000 mm 5 W/m 16,3 C 19,1 C 14,5 km/h (3 Bft) 100 %
30.07.2014 21:00 19,0 C 19,0 C 19,1 C 84 % 1011,6 hPa 0,0 l/m 1,6 km/h (1 Bft) N-NW 337 0 min 0,025 mm 5 W/m 16,2 C 19,0 C 9,7 km/h (2 Bft) 98 %
30.07.2014 21:10 18,9 C 18,9 C 19,0 C 84 % 1011,7 hPa 0,0 l/m 1,6 km/h (1 Bft) N-NW 337 0 min 0,000 mm 0 W/m 16,1 C 18,9 C 9,7 km/h (2 Bft) 98 %
30.07.2014 21:20 18,8 C 18,8 C 18,9 C 84 % 1011,8 hPa 0,0 l/m 1,6 km/h (1 Bft) N-NW 337 0 min 0,000 mm 0 W/m 16,0 C 18,8 C 16,1 km/h (3 Bft) 97 %
30.07.2014 21:30 18,7 C 18,7 C 18,8 C 84 % 1011,8 hPa 0,0 l/m 1,6 km/h (1 Bft) N-NW 337 0 min 0,000 mm 0 W/m 15,9 C 18,7 C 8,0 km/h (2 Bft) 98 %
30.07.2014 21:40 18,7 C 18,7 C 18,8 C 85 % 1011,9 hPa 0,0 l/m 0,0 km/h (0 Bft) N-NW 337 0 min 0,000 mm 0 W/m 16,1 C 18,7 C 4,8 km/h (1 Bft) 96 %
30.07.2014 21:50 18,6 C 18,6 C 18,7 C 85 % 1012,0 hPa 0,0 l/m 1,6 km/h (1 Bft) N-NW 337 0 min 0,000 mm 0 W/m 16,0 C 18,6 C 8,0 km/h (2 Bft) 98 %
30.07.2014 22:00 18,5 C 18,5 C 18,6 C 85 % 1012,1 hPa 0,0 l/m 0,0 km/h (0 Bft) N-NW 337 0 min 0,000 mm 0 W/m 15,9 C 18,5 C 9,7 km/h (2 Bft) 97 %
30.07.2014 22:10 18,4 C 18,4 C 18,5 C 84 % 1012,2 hPa 0,0 l/m 1,6 km/h (1 Bft) N-NW 337 0 min 0,000 mm 0 W/m 15,6 C 18,4 C 8,0 km/h (2 Bft) 97 %
30.07.2014 22:20 18,4 C 18,4 C 18,5 C 84 % 1012,3 hPa 0,0 l/m 0,0 km/h (0 Bft) N-NW 337 0 min 0,000 mm 0 W/m 15,6 C 18,4 C 6,4 km/h (2 Bft) 97 %
30.07.2014 22:30 18,4 C 18,4 C 18,4 C 86 % 1012,5 hPa 0,0 l/m 0,0 km/h (0 Bft) N-NW 337 0 min 0,000 mm 0 W/m 16,0 C 18,4 C 1,6 km/h (1 Bft) 97 %
30.07.2014 22:40 18,3 C 18,3 C 18,4 C 86 % 1012,5 hPa 0,0 l/m 0,0 km/h (0 Bft) N-NW 337 0 min 0,000 mm 0 W/m 15,9 C 18,3 C 1,6 km/h (1 Bft) 98 %
30.07.2014 22:50 18,3 C 18,3 C 18,4 C 86 % 1012,5 hPa 0,0 l/m 0,0 km/h (0 Bft) N 0 0 min 0,000 mm 0 W/m 15,9 C 18,3 C 0,0 km/h (0 Bft) 97 %
30.07.2014 23:00 18,2 C 18,2 C 18,3 C 85 % 1012,6 hPa 0,0 l/m 1,6 km/h (1 Bft) N-NW 337 0 min 0,025 mm 0 W/m 15,6 C 18,2 C 6,4 km/h (2 Bft) 97 %
30.07.2014 23:10 18,2 C 18,2 C 18,2 C 85 % 1012,6 hPa 0,0 l/m 0,0 km/h (0 Bft) N-NW 337 0 min 0,000 mm 0 W/m 15,6 C 18,2 C 1,6 km/h (1 Bft) 97 %
30.07.2014 23:20 18,2 C 18,2 C 18,2 C 85 % 1012,6 hPa 0,0 l/m 0,0 km/h (0 Bft) N-NW 337 0 min 0,000 mm 0 W/m 15,6 C 18,2 C 1,6 km/h (1 Bft) 97 %
30.07.2014 23:30 18,2 C 18,2 C 18,2 C 85 % 1012,5 hPa 0,0 l/m 0,0 km/h (0 Bft) N-NW 337 0 min 0,000 mm 0 W/m 15,6 C 18,2 C 1,6 km/h (1 Bft) 98 %
30.07.2014 23:40 18,2 C 18,2 C 18,2 C 85 % 1012,6 hPa 0,0 l/m 0,0 km/h (0 Bft) N 0 0 min 0,000 mm 0 W/m 15,6 C 18,2 C 0,0 km/h (0 Bft) 97 %
30.07.2014 23:50 18,1 C 18,1 C 18,2 C 85 % 1012,6 hPa 0,0 l/m 0,0 km/h (0 Bft) N-NW 337 0 min 0,000 mm 0 W/m 15,5 C 18,1 C 4,8 km/h (1 Bft) 98 %
_ Min-Zeit 02:30 02:30 02:50 14:10 04:10 - 00:00 - - - - - 02:30 02:30 00:10 00:50
Minimum _ 17,4 C 17,4 C 17,4 C 78 % 1006,3 hPa - 0,0 km/h (0 Bft) - - - - - 15,2 C 17,4 C 0,0 km/h (0 Bft) 87 %
_ Max-Zeit 14:30 14:30 14:30 11:20 23:00 03:10 16:50 - - 10:20 14:00 13:40 14:00 14:00 15:10 00:00
Maximum _ 23,3 C 23,2 C 23,3 C 88 % 1012,6 hPa 1,2 l/m 14,7 km/h
NW (3 Bft)
- - 10 min 0,279 mm 947 W/m 19,4 C 22,8 C 30,6 km/h
N-NW (5 Bft)
100 %
Durchschnitt _ 19,2 C 19,2 C 19,3 C 85 % 1008,4 hPa #4,2 l/m 3,4 km/h (1 Bft) NW - #8:10 h #1,777 mm 207 W/m 16,6 C 18,9 C 10,7 km/h (2 Bft) 98 %
PRIVATE WETTERSTATION BILLIGHEIM-ALLFELD - www.neckar-odenwald-wetter.de - Holger Sonntag